GW7317 Weather Reports


time (UTC)temp
F
wind
direction
speed
knots
gust
knots
rain 1hr
in
rain 24hr
in
rain mn
in
humidity
%
barometer
mb
20260505192959 85 235 0.9 1.7 0.00 0.00 0.00 67 1009.0
20260505192457 84 206 2.6 2.6 0.00 0.00 0.00 69 1009.1
20260505191954 84 228 0.9 1.7 0.00 0.00 0.00 67 1009.2
20260505191453 84 226 0.9 0.9 0.00 0.00 0.00 68 1009.3
20260505190949 84 221 0.9 2.6 0.00 0.00 0.00 68 1009.2
20260505190444 84 207 3.5 3.5 0.00 0.00 0.00 68 1009.3
20260505185940 84 167 1.7 2.6 0.00 0.00 0.00 67 1009.4
20260505185438 84 160 0.0 1.7 0.00 0.00 0.00 69 1009.3
20260505184934 84 184 0.9 0.9 0.00 0.00 0.00 70 1009.5
20260505184431 83 245 0.0 1.7 0.00 0.00 0.00 71 1009.3
20260505183927 82 147 0.9 1.7 0.00 0.00 0.00 72 1009.5
20260505183425 82 197 1.7 2.6 0.00 0.00 0.00 71 1009.6
20260505182921 83 160 0.0 2.6 0.00 0.00 0.00 71 1009.5
20260505182418 83 236 0.0 0.0 0.00 0.00 0.00 72 1009.7
20260505181914 82 244 1.7 3.5 0.00 0.00 0.00 72 1009.6
20260505181412 82 191 0.9 2.6 0.00 0.00 0.00 73 1009.7
20260505180909 81 135 3.5 3.5 0.00 0.00 0.00 74 1009.7
20260505180405 81 150 0.0 1.7 0.00 0.00 0.00 75 1009.8
20260505175902 81 193 0.9 0.9 0.00 0.00 0.00 74 1009.9
20260505175358 81 208 0.9 0.9 0.00 0.00 0.00 73 1009.7
20260505174854 82 289 0.9 1.7 0.00 0.00 0.00 72 1009.9
20260505174352 81 223 0.9 1.7 0.00 0.00 0.00 73 1009.9
20260505173848 81 213 1.7 1.7 0.00 0.00 0.00 75 1009.9
20260505173345 80 233 1.7 1.7 0.00 0.00 0.00 76 1009.8
20260505172842 80 201 0.0 1.7 0.00 0.00 0.00 76 1010.0
20260505172339 80 201 0.0 0.9 0.00 0.00 0.00 77 1010.2
20260505171839 80 218 0.9 2.6 0.00 0.00 0.00 75 1010.2
20260505171336 80 286 0.9 1.7 0.00 0.00 0.00 77 1010.1
20260505170833 80 209 0.9 0.9 0.00 0.00 0.00 79 1010.2
20260505170329 79 201 0.0 1.7 0.00 0.00 0.00 81 1010.3
20260505165825 78 155 0.0 2.6 0.00 0.00 0.00 83 1010.2
20260505165320 78 151 0.9 1.7 0.00 0.00 0.00 83 1010.3
20260505164816 78 176 0.9 1.7 0.00 0.00 0.00 81 1010.2
20260505164313 79 212 1.7 1.7 0.00 0.00 0.00 79 1010.3
20260505163812 79 147 0.9 1.7 0.00 0.00 0.00 78 1010.2
20260505163310 79 173 0.9 5.2 0.00 0.00 0.00 78 1010.3
20260505162808 79 169 0.9 1.7 0.00 0.00 0.00 78 1010.2
20260505162306 79 184 0.9 1.7 0.00 0.00 0.00 78 1010.0
20260505161801 79 204 0.9 0.9 0.00 0.00 0.00 79 1010.1
20260505161258 79 238 0.9 0.9 0.00 0.00 0.00 80 1010.2
20260505160755 79 218 0.0 1.7 0.00 0.00 0.00 79 1010.0
20260505160253 78 209 0.9 2.6 0.00 0.00 0.00 79 1010.2
20260505153232 77 197 0.9 0.9 0.00 0.00 0.00 83 1010.1
20260505152729 77 249 1.7 3.5 0.00 0.00 0.00 82 1009.8
20260505152226 77 209 1.7 2.6 0.00 0.00 0.00 82 1009.7
20260505151720 77 157 1.7 5.2 0.00 0.00 0.00 82 1009.8
20260505151218 77 166 0.0 0.0 0.00 0.00 0.00 82 1009.9
20260505150714 77 219 2.6 3.5 0.00 0.00 0.00 81 1009.7
20260505150212 77 321 0.9 2.6 0.00 0.00 0.00 80 1009.9
20260505140645 76 229 0.9 3.5 0.00 0.00 0.00 83 1009.6
20260505140142 76 207 0.9 1.7 0.00 0.00 0.00 83 1009.5
20260505130106 74 202 1.7 1.7 0.00 0.00 0.00 87 1009.4
20260505124555 73 233 1.7 1.7 0.00 0.00 0.00 87 1009.1
20260505124051 73 184 0.0 0.9 0.00 0.00 0.00 88 1009.1
20260505123548 73 225 0.9 1.7 0.00 0.00 0.00 88 1009.5
20260505123044 73 237 0.9 0.9 0.00 0.00 0.00 88 1009.5
20260505122541 72 210 0.0 0.9 0.00 0.00 0.00 89 1009.4
20260505122038 72 179 0.0 1.7 0.00 0.00 0.00 89 1009.1
20260505121534 72 167 0.9 1.7 0.00 0.00 0.00 89 1009.3
20260505121032 72 180 0.0 0.0 0.00 0.00 0.00 90 1009.5
20260505120528 72 180 0.9 1.7 0.00 0.00 0.00 90 1009.2
20260505120023 72 200 0.0 0.0 0.00 0.00 0.00 90 1008.9
20260505115518 71 193 0.0 1.7 0.00 0.00 0.00 90 1008.9
20260505115016 71 210 0.9 1.7 0.00 0.00 0.00 90 1009.0
20260505114513 71 196 0.0 0.9 0.00 0.00 0.00 90 1009.0
20260505114009 71 184 1.7 1.7 0.00 0.00 0.00 90 1008.9
20260505113506 71 184 0.0 0.0 0.00 0.00 0.00 90 1009.2
20260505113002 71 210 0.0 0.9 0.00 0.00 0.00 90 1009.5
20260505112459 71 202 0.0 0.9 0.00 0.00 0.00 90 1009.2
20260505111956 71 199 0.0 0.9 0.00 0.00 0.00 90 1009.0
20260505111450 71 197 0.9 0.9 0.00 0.00 0.00 90 1009.0
20260505110946 71 192 0.0 0.9 0.00 0.00 0.00 90 1009.0
20260505110443 71 186 0.0 0.0 0.00 0.00 0.00 90 1009.2
20260505101914 70 199 0.0 0.0 0.00 0.00 0.00 90 1009.2
20260505101409 71 199 0.0 0.9 0.00 0.00 0.00 89 1009.2
20260505100905 71 199 0.0 1.7 0.00 0.00 0.00 89 1009.1
20260505100402 71 203 0.9 0.9 0.00 0.00 0.00 89 1009.0
20260505095857 71 202 0.0 0.9 0.00 0.00 0.00 89 1009.2
20260505095355 71 190 0.0 0.9 0.00 0.00 0.00 88 1009.3
20260505094851 71 191 0.0 0.0 0.00 0.00 0.00 88 1009.4
20260505094348 71 210 0.0 0.9 0.00 0.00 0.00 88 1009.1
20260505093843 71 209 0.0 1.7 0.00 0.00 0.00 88 1009.2
20260505093341 71 204 0.0 0.0 0.00 0.00 0.00 88 1009.0
20260505092838 71 202 1.7 1.7 0.00 0.00 0.00 88 1009.3
20260505092336 71 188 0.0 0.9 0.00 0.00 0.00 87 1009.2
20260505091833 71 188 0.0 0.9 0.00 0.00 0.00 87 1009.5
20260505091331 71 211 0.0 0.0 0.00 0.00 0.00 87 1009.4
20260505090829 71 205 0.0 0.9 0.00 0.00 0.00 87 1009.3
20260505090327 71 202 0.0 1.7 0.00 0.00 0.00 87 1009.5
20260505085824 71 173 0.0 0.0 0.00 0.00 0.00 87 1009.5
20260505085322 71 173 0.0 0.9 0.00 0.00 0.00 87 1009.5
20260505084819 71 173 0.0 0.0 0.00 0.00 0.00 87 1009.7
20260505084318 71 180 0.9 0.9 0.00 0.00 0.00 87 1009.6
20260505083814 71 179 0.0 0.9 0.00 0.00 0.00 87 1009.4
20260505083311 71 182 0.0 0.9 0.00 0.00 0.00 87 1009.7
20260505082808 71 205 0.0 0.9 0.00 0.00 0.00 87 1009.7
20260505082305 71 205 0.9 0.9 0.00 0.00 0.00 86 1009.7
20260505081801 71 126 1.7 3.5 0.00 0.00 0.00 86 1009.7
20260505081258 71 191 0.0 0.9 0.00 0.00 0.00 86 1009.8
20260505080755 71 186 0.9 0.9 0.00 0.00 0.00 85 1009.9
20260505080250 71 183 0.9 0.9 0.00 0.00 0.00 85 1009.7
20260505075746 71 182 0.9 1.7 0.00 0.00 0.00 85 1010.0
20260505075243 71 209 0.0 1.7 0.00 0.00 0.00 85 1009.8
20260505074741 71 119 0.0 0.9 0.00 0.00 0.00 85 1010.0
20260505074238 71 157 0.0 1.7 0.00 0.00 0.00 84 1010.0
20260505073735 71 166 0.9 1.7 0.00 0.00 0.00 85 1009.9
20260505073233 71 169 0.9 0.9 0.00 0.00 0.00 84 1009.9
20260505072729 71 194 0.9 0.9 0.00 0.00 0.00 84 1010.1
20260505072226 71 221 0.0 0.9 0.00 0.00 0.00 84 1010.0
20260505071721 71 214 0.0 1.7 0.00 0.00 0.00 84 1010.2
20260505071219 71 188 0.9 0.9 0.00 0.00 0.00 84 1010.4
20260505070716 71 190 0.0 0.0 0.00 0.00 0.00 83 1010.5
20260505070212 71 191 0.0 0.0 0.00 0.00 0.00 83 1010.2
20260505065708 71 186 0.0 0.9 0.00 0.00 0.00 83 1010.3
20260505065204 71 196 0.0 0.0 0.00 0.00 0.00 83 1010.3
20260505064701 71 196 0.0 0.9 0.00 0.00 0.00 82 1010.4
20260505064200 71 198 0.0 1.7 0.00 0.00 0.00 82 1010.5
20260505063657 71 207 0.0 1.7 0.00 0.00 0.00 82 1010.7
20260505063153 71 172 0.0 0.0 0.00 0.00 0.00 82 1010.4
20260505062649 71 198 0.9 1.7 0.00 0.00 0.00 82 1010.4
20260505062147 71 202 0.0 1.7 0.00 0.00 0.00 82 1010.5
20260505061644 71 176 0.0 0.9 0.00 0.00 0.00 81 1010.8
20260505061142 71 186 0.9 0.9 0.00 0.00 0.00 81 1010.9
20260505060639 71 180 0.9 0.9 0.00 0.00 0.00 81 1010.9
20260505060136 71 180 0.0 0.0 0.00 0.00 0.00 81 1010.9
20260505055631 71 178 0.0 1.7 0.00 0.00 0.00 81 1010.9
20260505055128 71 193 0.9 0.9 0.00 0.00 0.00 80 1010.7
20260505054626 71 181 0.9 1.7 0.00 0.00 0.00 80 1010.6
20260505054124 71 183 0.0 0.9 0.00 0.00 0.00 80 1010.8
20260505053620 71 204 0.0 1.7 0.00 0.00 0.00 80 1010.8
20260505053117 71 211 0.9 0.9 0.00 0.00 0.00 79 1010.9
20260505052614 71 203 0.0 1.7 0.00 0.00 0.00 79 1011.1
20260505052112 71 204 0.9 1.7 0.00 0.00 0.00 79 1011.3
20260505051608 71 183 0.0 0.9 0.00 0.00 0.00 79 1011.3
20260505051106 72 206 0.9 0.9 0.00 0.00 0.00 78 1011.2
20260505050604 72 193 0.9 1.7 0.00 0.00 0.00 78 1011.2
20260505041532 72 202 0.9 1.7 0.00 0.00 0.00 76 1011.3
20260505041029 72 186 0.9 1.7 0.00 0.00 0.00 75 1011.2
20260505040526 72 199 0.0 1.7 0.00 0.00 0.00 75 1011.2
20260505040024 73 206 0.9 1.7 0.00 0.00 0.00 75 1011.4
20260505035519 73 102 1.7 5.2 0.00 0.00 0.00 75 1011.5
20260505035016 73 234 0.9 0.9 0.00 0.00 0.00 75 1011.5
20260505034512 73 185 1.7 2.6 0.00 0.00 0.00 74 1011.6
20260505034010 73 216 0.9 2.6 0.00 0.00 0.00 74 1011.5
20260505033507 73 180 0.9 2.6 0.00 0.00 0.00 74 1011.5
20260505033005 73 188 0.9 1.7 0.00 0.00 0.00 73 1011.8
20260505032502 73 205 0.0 0.0 0.00 0.00 0.00 74 1011.7
20260505031958 73 210 1.7 2.6 0.00 0.00 0.00 73 1011.6
20260505031455 73 132 1.7 7.0 0.00 0.00 0.00 72 1011.6
20260505030952 73 208 1.7 5.2 0.00 0.00 0.00 72 1011.4
20260505030448 74 158 0.9 1.7 0.00 0.00 0.00 72 1011.5
20260505025943 74 202 0.0 3.5 0.00 0.00 0.00 72 1011.2
20260505025440 74 157 0.9 7.0 0.00 0.00 0.00 71 1011.5
20260505024939 74 207 0.0 1.7 0.00 0.00 0.00 71 1011.5
20260505024437 74 219 1.7 2.6 0.00 0.00 0.00 71 1011.6
20260505023934 74 233 2.6 3.5 0.00 0.00 0.00 70 1011.5
20260505023431 74 229 1.7 2.6 0.00 0.00 0.00 70 1011.6
20260505022928 74 207 0.9 5.2 0.00 0.00 0.00 70 1011.5
20260505022426 74 181 0.9 1.7 0.00 0.00 0.00 70 1011.3
20260505021922 75 222 1.7 2.6 0.00 0.00 0.00 70 1011.3
20260505021419 75 197 0.0 0.9 0.00 0.00 0.00 70 1011.2
20260505020914 75 222 1.7 2.6 0.00 0.00 0.00 69 1011.3
20260505020410 75 245 1.7 3.5 0.00 0.00 0.00 69 1011.1
20260505015908 75 196 0.9 6.1 0.00 0.00 0.00 69 1011.1
20260505015405 75 212 0.9 2.6 0.00 0.00 0.00 68 1011.2
20260505014902 75 185 1.7 2.6 0.00 0.00 0.00 68 1011.1
20260505014358 75 171 0.0 0.9 0.00 0.00 0.00 68 1011.1
20260505013855 75 113 2.6 2.6 0.00 0.00 0.00 67 1011.1
20260505013352 75 195 1.7 1.7 0.00 0.00 0.00 67 1010.9
20260505012851 76 231 0.9 2.6 0.00 0.00 0.00 67 1010.9
20260505012349 76 248 0.0 2.6 0.00 0.00 0.00 67 1010.9
20260505011844 76 199 0.0 1.7 0.00 0.00 0.00 67 1010.7
20260505011341 76 212 0.9 1.7 0.00 0.00 0.00 67 1010.8
20260505010837 76 120 0.9 1.7 0.00 0.00 0.00 66 1011.0
20260505010333 76 197 0.9 0.9 0.00 0.00 0.00 67 1010.9
20260505005830 76 208 0.0 1.7 0.00 0.00 0.00 66 1011.0
20260505005326 76 212 0.9 3.5 0.00 0.00 0.00 66 1010.8
20260505004824 76 208 1.7 2.6 0.00 0.00 0.00 66 1011.0
20260505004320 76 214 0.9 2.6 0.00 0.00 0.00 66 1010.9
20260505003818 76 218 0.9 3.5 0.00 0.00 0.00 65 1010.7
20260505003315 76 166 1.7 3.5 0.00 0.00 0.00 65 1010.6
20260505002811 77 211 0.9 0.9 0.00 0.00 0.00 65 1010.8
20260505002308 77 212 0.0 1.7 0.00 0.00 0.00 64 1010.7
20260505001806 77 154 1.7 3.5 0.00 0.00 0.00 64 1010.8
20260505001303 77 183 0.0 1.7 0.00 0.00 0.00 63 1010.9
20260505000800 77 190 0.9 2.6 0.00 0.00 0.00 63 1010.9
20260505000258 78 211 0.9 1.7 0.00 0.00 0.00 63 1011.0
20260504235754 78 208 1.7 1.7 0.00 0.00 0.00 62 1011.1
20260504235250 78 162 1.7 2.6 0.00 0.00 0.00 62 1010.9
20260504234748 78 206 2.6 3.5 0.00 0.00 0.00 62 1010.8
20260504234245 78 165 1.7 5.2 0.00 0.00 0.00 62 1011.1
20260504233741 78 251 0.0 2.6 0.00 0.00 0.00 62 1010.9
20260504233237 78 204 0.0 2.6 0.00 0.00 0.00 62 1011.2
20260504232734 78 196 0.9 0.9 0.00 0.00 0.00 61 1010.9
20260504232231 78 237 1.7 2.6 0.00 0.00 0.00 61 1011.0
20260504231728 79 171 0.9 1.7 0.00 0.00 0.00 61 1011.2
20260504231224 79 153 2.6 3.5 0.00 0.00 0.00 60 1011.2
20260504230720 79 181 0.9 3.5 0.00 0.00 0.00 60 1011.2
20260504230219 79 169 0.9 1.7 0.00 0.00 0.00 60 1011.6
20260504225718 79 214 2.6 7.0 0.00 0.00 0.00 60 1011.5
20260504225214 80 175 1.7 7.8 0.00 0.00 0.00 59 1011.4
20260504224711 80 200 1.7 2.6 0.00 0.00 0.00 58 1011.2
20260504224208 80 230 0.9 1.7 0.00 0.00 0.00 59 1011.3
20260504223704 80 163 2.6 6.1 0.00 0.00 0.00 57 1011.4
20260504223200 80 165 0.0 2.6 0.00 0.00 0.00 57 1011.7
20260504222657 80 206 1.7 2.6 0.00 0.00 0.00 56 1011.7
20260504222154 80 153 3.5 5.2 0.00 0.00 0.00 55 1011.5
20260504221651 81 223 0.9 1.7 0.00 0.00 0.00 54 1011.7
20260504221148 80 221 0.9 1.7 0.00 0.00 0.00 54 1011.6
20260504220644 80 281 1.7 5.2 0.00 0.00 0.00 54 1011.8
20260504220143 81 236 0.0 3.5 0.00 0.00 0.00 54 1011.6
20260504215638 81 156 1.7 3.5 0.00 0.00 0.00 53 1011.7
20260504215136 81 207 0.0 1.7 0.00 0.00 0.00 53 1011.6
20260504214632 81 150 2.6 6.1 0.00 0.00 0.00 52 1011.9
20260504214128 82 177 0.0 0.9 0.00 0.00 0.00 53 1012.1
20260504213625 82 173 2.6 2.6 0.00 0.00 0.00 51 1011.8
20260504213122 82 236 1.7 3.5 0.00 0.00 0.00 51 1012.0
20260504212618 82 216 0.9 0.9 0.00 0.00 0.00 52 1012.0
20260504212115 82 166 2.6 3.5 0.00 0.00 0.00 50 1012.1
20260504211612 82 206 0.9 0.9 0.00 0.00 0.00 51 1012.3
20260504211109 82 148 0.0 2.6 0.00 0.00 0.00 50 1012.2
20260504210607 82 224 0.0 0.9 0.00 0.00 0.00 51 1012.5
20260504205601 82 115 0.0 0.9 0.00 0.00 0.00 51 1012.5
20260504205058 83 154 1.7 5.2 0.00 0.00 0.00 49 1012.5
20260504204556 83 188 0.9 2.6 0.00 0.00 0.00 48 1012.7
20260504204055 83 238 1.7 2.6 0.00 0.00 0.00 49 1012.6
20260504203553 83 182 0.9 1.7 0.00 0.00 0.00 49 1012.7
20260504203050 83 207 0.9 2.6 0.00 0.00 0.00 49 1012.8
20260504202545 83 131 2.6 2.6 0.00 0.00 0.00 48 1012.8
20260504202042 82 231 0.9 1.7 0.00 0.00 0.00 50 1013.2
20260504201539 82 208 0.9 1.7 0.00 0.00 0.00 50 1013.3
20260504201037 82 166 1.7 1.7 0.00 0.00 0.00 50 1013.2
20260504200532 83 205 2.6 5.2 0.00 0.00 0.00 47 1013.3
20260504200030 84 226 0.9 2.6 0.00 0.00 0.00 47 1013.6
20260504195526 84 216 0.9 1.7 0.00 0.00 0.00 48 1013.5
20260504195023 83 238 0.9 1.7 0.00 0.00 0.00 48 1013.7
20260504194519 82 141 0.9 0.9 0.00 0.00 0.00 50 1013.6
20260504194015 83 159 0.0 3.5 0.00 0.00 0.00 50 1013.7
20260504193512 83 194 0.0 1.7 0.00 0.00 0.00 50 1013.7